Location: Newark
(35.2672°N, 80.7344°W)
Time: 05:42:42
(UTC+00:00)

Vanguard 1 Rocket - Visible Passes

Search period start: 20 January 2020 00:00
Search period end: 30 January 2020 00:00
Orbit: 650 x 4226 km, 34.3° (Epoch: 19 January)

Date Brightness Start Highest point End Pass type
(mag) Time Alt. Az. Time Alt. Az. Time Alt. Az.
20 Jan 11.7 00:02:45 10° W 00:22:42 32° SW 00:41:52 10° S visible
20 Jan 11.7 22:47:37 10° WNW 23:08:35 45° SW 23:31:16 10° SSE visible
21 Jan 12.0 01:27:38 10° WSW 01:37:55 14° SW 01:47:43 10° SSW visible
22 Jan 11.9 00:06:51 10° W 00:24:32 25° SW 00:42:07 10° S visible
22 Jan 11.9 22:51:00 10° W 23:10:34 37° SW 23:32:18 10° SSE visible
24 Jan 12.1 00:11:54 10° W 00:26:29 19° SW 00:41:20 10° SSW visible
24 Jan 12.0 22:54:44 10° W 23:12:37 30° SW 23:32:48 10° S visible
26 Jan 12.3 00:19:07 10° WSW 00:28:37 13° SW 00:38:21 10° SSW visible
26 Jan 12.2 22:59:06 10° W 23:14:46 24° SW 23:32:34 10° S visible
28 Jan 12.4 23:04:36 10° WSW 23:17:05 17° SW 23:31:05 10° SSW visible
